This is the latest recevied weather packets stored in our database for station/object KD5BIG-13. If no packets are shown the sender has not sent any weather packets the latest 10 day(s).
| Time | Temp. | Humidity | Pressure | Rain* | Wind** | Luminosity | Snow |
|---|---|---|---|---|---|---|---|
| 1777757774 | 21.11° C | 42% | 1021.4 hPa | 0 mm | - | 58 W/m² | - |
| 1777757170 | 21.67° C | 39% | 1021 hPa | 0 mm | - | 61 W/m² | - |
| 1777756868 | 21.67° C | 38% | 1021.2 hPa | 0 mm | - | 64 W/m² | - |
| 1777756562 | 21.67° C | 39% | 1021.3 hPa | 0 mm | - | 520 W/m² | - |
| 1777756260 | 21.67° C | 40% | 1021.3 hPa | 0 mm | - | 588 W/m² | - |
| 1777755957 | 21.67° C | 39% | 1021.4 hPa | 0 mm | - | 627 W/m² | - |
| 1777755654 | 21.67° C | 39% | 1021.4 hPa | 0 mm | - | 676 W/m² | - |
| 1777755350 | 21.67° C | 40% | 1021.5 hPa | 0 mm | - | 700 W/m² | - |
| 1777755048 | 21.67° C | 40% | 1021.7 hPa | 0 mm | - | 718 W/m² | - |
| 1777754139 | 21.67° C | 39% | 1021.8 hPa | 0 mm | - | 781 W/m² | - |
| 1777753532 | 21.67° C | 40% | 1021.8 hPa | 0 mm | - | 816 W/m² | - |
| 1777753231 | 21.67° C | 43% | 1021.9 hPa | 0 mm | - | 832 W/m² | - |
| 1777752926 | 21.67° C | 38% | 1021.9 hPa | 0 mm | - | 850 W/m² | - |
| 1777752622 | 21.67° C | 38% | 1021.9 hPa | 0 mm | - | 865 W/m² | - |
| 1777752318 | 21.67° C | 42% | 1021.9 hPa | 0 mm | - | 879 W/m² | - |
| 1777752017 | 21.67° C | 43% | 1022 hPa | 0 mm | - | 896 W/m² | - |
| 1777751714 | 21.67° C | 41% | 1022 hPa | 0 mm | - | 907 W/m² | - |
| 1777751410 | 21.67° C | 38% | 1022.1 hPa | 0 mm | - | 916 W/m² | - |
| 1777751107 | 21.67° C | 41% | 1022.2 hPa | 0 mm | - | 934 W/m² | - |
| 1777750500 | 21.67° C | 38% | 1022.3 hPa | 0 mm | - | 948 W/m² | - |
| 1777750195 | 21.67° C | 36% | 1022.3 hPa | 0 mm | - | 956 W/m² | - |
| 1777749589 | 21.67° C | 37% | 1022.2 hPa | 0 mm | - | 973 W/m² | - |
| 1777748985 | 21.67° C | 38% | 1022.3 hPa | 0 mm | - | 982 W/m² | - |
| 1777748682 | 21.67° C | 40% | 1022.4 hPa | 0 mm | - | 967 W/m² | - |
| 1777748378 | 21.67° C | 41% | 1022.4 hPa | 0 mm | - | 960 W/m² | - |
* Rain latest hour (hover to see other rain measurements)
** Current wind speed in m/s (hover to see current wind gust speed)